FW1762 Weather Reports


time (UTC)temp
F
wind
direction
speed
knots
gust
knots
rain 1hr
in
rain 24hr
in
rain mn
in
humidity
%
barometer
mb
20260505214310 55 117 0.0 0.0 0.00 0.00 0.00 73 1012.9
20260505213539 55 97 0.0 0.0 0.00 0.00 0.00 72 1012.5
20260505213138 55 129 0.0 0.0 0.00 0.00 0.00 71 1012.5
20260505212713 56 182 0.0 0.0 0.00 0.00 0.00 72 1012.5
20260505212243 56 62 0.0 0.0 0.00 0.00 0.00 73 1012.5
20260505211813 56 5 0.0 0.0 0.00 0.00 0.00 73 1012.5
20260505211042 56 293 0.0 0.0 0.00 0.00 0.00 73 1012.5
20260505210540 56 355 0.0 0.0 0.00 0.00 0.00 73 1012.5
20260505210038 56 60 0.0 0.0 0.00 0.00 0.00 72 1012.5
20260505205636 56 171 0.0 0.0 0.00 0.00 0.00 72 1012.5
20260505205210 56 91 0.0 0.0 0.00 0.00 0.00 72 1012.5
20260505204743 56 114 0.0 0.0 0.00 0.00 0.00 72 1012.2
20260505204311 56 78 0.0 0.0 0.00 0.00 0.00 72 1012.2
20260505203541 56 289 0.0 0.0 0.00 0.00 0.00 72 1012.2
20260505203042 57 304 0.0 0.0 0.00 0.00 0.00 72 1012.2
20260505202538 57 319 0.0 0.0 0.00 0.00 0.00 71 1012.2
20260505202038 57 46 0.0 0.0 0.00 0.00 0.00 71 1012.2
20260505201538 57 33 0.0 1.7 0.00 0.00 0.00 72 1012.2
20260505201114 57 36 0.0 1.7 0.00 0.00 0.00 71 1012.2
20260505200642 57 50 0.0 0.0 0.00 0.00 0.00 71 1012.2
20260505200240 57 48 0.0 0.0 0.00 0.00 0.00 71 1012.2
20260505195813 57 61 0.0 0.0 0.00 0.00 0.00 72 1011.9
20260505195042 57 82 0.0 0.0 0.00 0.00 0.00 72 1011.9
20260505194639 58 79 0.0 0.0 0.00 0.00 0.00 72 1011.9
20260505194215 58 61 0.0 0.0 0.00 0.00 0.00 72 1011.5
20260505193743 58 60 0.0 0.0 0.00 0.00 0.00 72 1011.9
20260505193313 58 308 0.0 0.0 0.00 0.00 0.00 71 1011.5
20260505192544 58 307 0.0 0.0 0.00 0.00 0.00 71 1011.5
20260505192038 58 307 0.0 0.0 0.00 0.00 0.00 71 1011.5
20260505191636 58 360 0.0 0.0 0.00 0.00 0.00 71 1011.5
20260505191213 58 302 0.0 0.0 0.00 0.00 0.00 71 1011.5
20260505190743 58 259 0.0 0.0 0.00 0.00 0.00 70 1011.5
20260505190314 58 219 0.0 0.0 0.00 0.00 0.00 70 1011.5
20260505185539 58 218 0.0 0.0 0.00 0.00 0.00 70 1011.5
20260505185037 58 213 0.0 0.0 0.00 0.00 0.00 69 1011.5
20260505184544 58 213 0.0 0.0 0.00 0.00 0.00 70 1011.5
20260505184037 58 200 0.0 0.0 0.00 0.00 0.00 69 1011.2
20260505183611 58 305 0.0 0.0 0.00 0.00 0.00 69 1011.2
20260505183142 58 28 0.0 0.0 0.00 0.00 0.00 69 1011.2
20260505182713 58 297 0.0 0.0 0.00 0.00 0.00 68 1011.2
20260505182242 58 238 0.0 0.0 0.00 0.00 0.00 68 1011.2
20260505181813 59 342 0.0 0.0 0.00 0.00 0.00 68 1011.2
20260505181037 59 293 0.0 0.0 0.00 0.00 0.00 69 1011.2
20260505180541 59 275 0.0 0.0 0.00 0.00 0.00 69 1011.2
20260505180038 59 288 0.0 0.0 0.00 0.00 0.00 68 1011.2
20260505175614 59 261 0.0 0.0 0.00 0.00 0.00 68 1011.2
20260505175212 59 258 0.0 0.0 0.00 0.00 0.00 68 1011.2
20260505174738 59 259 0.0 0.0 0.00 0.00 0.00 68 1011.2
20260505174314 59 159 0.0 0.0 0.00 0.00 0.00 68 1011.2
20260505173542 59 292 0.0 0.0 0.00 0.00 0.00 69 1011.2
20260505173036 59 292 0.0 0.0 0.00 0.00 0.00 68 1011.2
20260505172533 59 281 0.0 0.0 0.00 0.00 0.00 69 1011.2
20260505172035 59 243 0.0 0.0 0.00 0.00 0.00 68 1011.5
20260505171535 59 298 0.0 0.0 0.00 0.00 0.00 68 1011.5
20260505171036 60 288 0.0 0.0 0.00 0.00 0.00 67 1011.5
20260505170534 60 304 0.0 0.0 0.00 0.00 0.00 67 1011.5
20260505170035 60 304 0.0 0.0 0.00 0.00 0.00 66 1011.5
20260505165534 60 280 0.0 0.0 0.00 0.00 0.00 66 1011.5
20260505165035 60 282 0.0 0.0 0.00 0.00 0.00 66 1011.5
20260505164533 60 266 0.0 0.0 0.00 0.00 0.00 65 1011.2
20260505164036 60 299 0.0 0.0 0.00 0.00 0.00 65 1011.2
20260505163535 61 302 0.0 0.0 0.00 0.00 0.00 64 1011.2
20260505163038 61 305 0.0 0.0 0.00 0.00 0.00 64 1011.2
20260505162547 61 316 0.0 0.0 0.00 0.00 0.00 63 1011.2
20260505162035 61 246 0.0 0.0 0.00 0.00 0.00 63 1011.2
20260505161534 61 242 0.0 0.0 0.00 0.00 0.00 64 1011.5
20260505161034 61 242 0.0 0.0 0.00 0.00 0.00 63 1011.5
20260505160536 61 238 0.0 0.0 0.00 0.00 0.00 63 1011.2
20260505153035 61 313 0.0 0.0 0.00 0.00 0.00 63 1011.5
20260505152536 61 192 0.0 0.0 0.00 0.00 0.00 64 1011.5
20260505152033 61 184 0.0 0.0 0.00 0.00 0.00 64 1011.5
20260505151534 61 270 0.0 0.0 0.00 0.00 0.00 63 1011.5
20260505151030 61 282 0.0 0.0 0.00 0.00 0.00 63 1011.5
20260505150533 61 304 0.0 0.0 0.00 0.00 0.00 63 1011.9
20260505140642 61 346 0.0 0.0 0.00 0.00 0.00 60 1011.9
20260505140232 61 5 0.0 0.0 0.00 0.00 0.00 60 1011.9
20260505125028 62 254 0.0 0.0 0.00 0.00 0.00 59 1012.2
20260505124530 62 143 0.0 0.0 0.00 0.00 0.00 60 1012.2
20260505124030 62 330 0.0 0.0 0.00 0.00 0.00 61 1012.2
20260505123530 62 51 0.0 0.0 0.00 0.00 0.00 60 1012.2
20260505123027 62 42 0.0 0.0 0.00 0.00 0.00 61 1012.2
20260505122528 62 111 0.0 0.0 0.00 0.00 0.00 62 1012.2
20260505122029 62 169 0.0 0.0 0.00 0.00 0.00 62 1012.2
20260505121527 62 334 0.9 0.9 0.00 0.00 0.00 63 1012.2
20260505121032 62 72 0.9 0.9 0.00 0.00 0.00 62 1012.2
20260505120527 62 47 0.0 0.0 0.00 0.00 0.00 63 1012.2
20260505120027 61 306 0.0 0.0 0.00 0.00 0.00 63 1012.2
20260505115528 61 223 0.0 0.0 0.00 0.00 0.00 66 1012.2
20260505115042 61 52 0.0 0.0 0.00 0.00 0.00 66 1012.2
20260505114626 61 219 0.0 0.0 0.00 0.00 0.00 66 1012.2
20260505114141 60 236 0.0 0.0 0.00 0.00 0.00 67 1012.2
20260505113741 60 5 0.0 0.0 0.00 0.00 0.00 68 1012.2
20260505113328 60 42 0.0 0.0 0.00 0.00 0.00 71 1012.5
20260505112526 59 333 0.0 0.0 0.00 0.00 0.00 70 1012.5
20260505112027 59 212 0.0 0.0 0.00 0.00 0.00 70 1012.5
20260505111527 59 105 0.9 0.9 0.00 0.00 0.00 70 1012.5
20260505111040 60 58 0.0 0.0 0.00 0.00 0.00 69 1012.5
20260505110638 60 269 0.0 3.5 0.00 0.00 0.00 73 1012.5
20260505110235 60 308 0.0 0.0 0.00 0.00 0.00 72 1012.9
20260505102026 56 350 0.0 0.0 0.00 0.00 0.00 79 1013.2
20260505101526 56 236 0.0 0.0 0.00 0.00 0.00 79 1013.2
20260505101025 55 268 0.0 0.0 0.00 0.00 0.00 80 1013.2
20260505100526 55 310 0.0 0.0 0.00 0.00 0.00 81 1013.2
20260505100026 55 116 0.0 0.0 0.00 0.00 0.00 81 1013.2
20260505095525 55 304 0.0 0.0 0.00 0.00 0.00 81 1013.2
20260505095023 54 200 0.0 0.0 0.00 0.00 0.00 81 1013.2
20260505094524 54 34 0.0 1.7 0.00 0.00 0.00 81 1013.2
20260505094041 54 86 0.0 1.7 0.00 0.00 0.00 81 1013.2
20260505093624 55 67 0.0 0.9 0.00 0.00 0.00 81 1013.2
20260505093223 55 330 0.9 0.9 0.00 0.00 0.00 81 1013.2
20260505092743 55 31 0.9 1.7 0.00 0.00 0.00 81 1013.2
20260505092324 55 254 0.0 0.0 0.00 0.00 0.00 82 1013.2
20260505091525 55 244 0.9 0.9 0.00 0.00 0.00 81 1013.2
20260505091036 55 355 0.9 0.9 0.00 0.00 0.00 81 1013.2
20260505090625 55 92 0.0 0.9 0.00 0.00 0.00 81 1013.2
20260505085523 55 227 0.0 0.0 0.00 0.00 0.00 83 1013.2
20260505085043 54 227 0.0 0.0 0.00 0.00 0.00 83 1013.2
20260505084639 54 226 0.0 0.0 0.00 0.00 0.00 84 1013.2
20260505084222 54 227 0.0 0.0 0.00 0.00 0.00 83 1013.5
20260505083745 54 134 0.0 0.0 0.00 0.00 0.00 84 1013.2
20260505083322 54 102 0.0 0.0 0.00 0.00 0.00 84 1013.5
20260505082524 54 144 0.0 0.0 0.00 0.00 0.00 85 1013.5
20260505082025 54 360 0.0 0.0 0.00 0.00 0.00 86 1013.5
20260505081522 54 250 0.0 0.0 0.00 0.00 0.00 86 1013.5
20260505081042 54 195 0.0 0.0 0.00 0.00 0.00 86 1013.5
20260505080623 54 296 0.0 0.0 0.00 0.00 0.00 86 1013.5
20260505080141 53 292 0.0 0.0 0.00 0.00 0.00 87 1013.5
20260505075722 53 258 0.0 0.0 0.00 0.00 0.00 87 1013.5
20260505075319 53 105 0.0 0.0 0.00 0.00 0.00 87 1013.5
20260505074537 53 269 0.0 0.0 0.00 0.00 0.00 86 1013.2
20260505074041 53 271 0.0 0.0 0.00 0.00 0.00 86 1013.2
20260505073640 53 239 0.0 0.0 0.00 0.00 0.00 86 1013.2
20260505073221 53 238 0.0 0.0 0.00 0.00 0.00 86 1013.2
20260505072738 53 238 0.0 0.9 0.00 0.00 0.00 86 1013.2
20260505072320 53 312 0.0 0.0 0.00 0.00 0.00 87 1013.2
20260505071620 53 19 0.0 0.0 0.00 0.00 0.00 87 1013.2
20260505071142 53 355 0.0 0.0 0.00 0.00 0.00 87 1013.5
20260505070738 53 40 0.0 0.0 0.00 0.00 0.00 87 1013.5
20260505070319 53 315 0.0 0.0 0.00 0.00 0.00 87 1013.5
20260505065540 53 317 0.0 0.0 0.00 0.00 0.00 87 1013.5
20260505065039 53 51 0.0 0.0 0.00 0.00 0.00 88 1013.5
20260505064636 53 337 0.0 1.7 0.00 0.00 0.00 88 1013.5
20260505064219 53 360 0.0 1.7 0.00 0.00 0.00 88 1013.5
20260505063738 53 117 0.0 0.0 0.00 0.00 0.00 88 1013.5
20260505063321 53 42 0.0 0.0 0.00 0.00 0.00 89 1013.5
20260505062538 53 126 0.0 0.0 0.00 0.00 0.00 89 1013.5
20260505062137 53 124 0.0 0.0 0.00 0.00 0.00 89 1013.5
20260505061737 53 124 0.0 0.0 0.00 0.00 0.00 89 1013.5
20260505061318 53 348 0.0 0.0 0.00 0.00 0.00 89 1013.5
20260505060518 53 74 0.0 0.0 0.00 0.00 0.00 90 1013.5
20260505060019 53 73 0.0 0.0 0.00 0.00 0.00 90 1013.2
20260505055519 53 74 0.0 0.0 0.00 0.00 0.00 90 1013.2
20260505055021 53 278 0.0 0.0 0.00 0.00 0.00 90 1013.2
20260505054542 52 278 0.0 0.0 0.00 0.00 0.00 90 1013.2
20260505054141 52 278 0.0 0.0 0.00 0.00 0.00 90 1013.5
20260505053735 52 278 0.0 0.0 0.00 0.00 0.00 90 1013.5
20260505053317 52 278 0.0 0.0 0.00 0.00 0.00 90 1013.5
20260505052538 52 278 0.0 0.0 0.00 0.00 0.00 90 1013.5
20260505052119 52 279 0.0 0.0 0.00 0.00 0.00 90 1013.5
20260505051637 52 279 0.0 0.0 0.00 0.00 0.00 90 1013.5
20260505051219 52 279 0.0 0.0 0.00 0.00 0.00 90 1013.5
20260505050741 52 292 0.0 0.0 0.00 0.00 0.00 90 1013.5
20260505050318 52 314 0.0 0.0 0.00 0.00 0.00 90 1013.5
20260505041618 53 69 0.0 0.0 0.00 0.00 0.00 90 1013.5
20260505041136 53 69 0.0 0.0 0.00 0.00 0.00 90 1013.5
20260505040720 53 69 0.0 0.0 0.00 0.00 0.00 90 1013.5
20260505040245 53 69 0.0 0.0 0.00 0.00 0.00 90 1013.5
20260505035816 53 69 0.0 0.0 0.00 0.00 0.00 90 1013.5
20260505035041 53 67 0.0 0.0 0.00 0.00 0.00 90 1013.5
20260505034641 53 65 0.0 0.0 0.00 0.00 0.00 90 1013.5
20260505034216 53 64 0.0 0.0 0.00 0.00 0.00 90 1013.5
20260505033739 53 46 0.0 0.0 0.00 0.00 0.00 90 1013.5
20260505033315 53 46 0.0 0.0 0.00 0.00 0.00 90 1013.5
20260505032516 53 46 0.0 0.0 0.00 0.00 0.00 90 1013.5
20260505032038 53 46 0.0 0.0 0.00 0.00 0.00 89 1013.5
20260505031616 53 46 0.0 0.0 0.00 0.00 0.00 89 1013.5
20260505031215 53 46 0.0 0.0 0.00 0.00 0.00 89 1013.5
20260505030742 53 46 0.0 0.0 0.00 0.00 0.00 89 1013.5
20260505030314 53 46 0.0 0.0 0.00 0.00 0.00 89 1013.9
20260505025514 53 46 0.0 0.0 0.00 0.00 0.00 89 1013.9
20260505025043 53 46 0.0 0.0 0.00 0.00 0.00 89 1013.9
20260505024639 53 46 0.0 0.0 0.00 0.00 0.00 89 1013.5
20260505024214 53 46 0.0 0.0 0.00 0.00 0.00 89 1013.5
20260505023741 53 46 0.0 0.0 0.00 0.00 0.00 89 1013.5
20260505023313 53 46 0.0 0.0 0.00 0.00 0.00 89 1013.5
20260505022537 53 46 0.0 0.0 0.00 0.00 0.00 89 1013.5
20260505022044 53 46 0.0 0.0 0.00 0.00 0.00 89 1013.5
20260505021639 53 46 0.0 0.0 0.00 0.00 0.00 89 1013.5
20260505021212 53 46 0.0 0.0 0.00 0.00 0.00 89 1013.5
20260505020744 52 46 0.0 0.0 0.00 0.00 0.00 89 1013.5
20260505020312 52 46 0.0 0.0 0.00 0.00 0.00 90 1013.9
20260505015515 52 46 0.0 0.0 0.00 0.00 0.00 89 1013.9
20260505015042 52 46 0.0 0.0 0.00 0.00 0.00 89 1013.9
20260505014613 52 46 0.0 0.0 0.00 0.00 0.00 89 1013.9
20260505014142 52 46 0.0 0.0 0.00 0.00 0.00 89 1013.9
20260505013738 52 46 0.0 0.0 0.00 0.00 0.00 88 1013.9
20260505013314 52 46 0.0 0.0 0.00 0.00 0.00 88 1014.2
20260505012543 53 46 0.0 0.0 0.00 0.00 0.00 87 1014.2
20260505012037 53 46 0.0 0.0 0.00 0.00 0.00 87 1013.9
20260505011613 53 46 0.0 0.0 0.00 0.00 0.00 87 1013.9
20260505011141 53 48 0.0 0.0 0.00 0.00 0.00 87 1013.9
20260505010737 53 48 0.0 0.0 0.00 0.00 0.00 87 1014.2
20260505010314 53 50 0.0 0.0 0.00 0.00 0.00 87 1014.2
20260505005513 54 50 0.0 0.0 0.00 0.00 0.00 86 1014.2
20260505005036 54 50 0.0 0.0 0.00 0.00 0.00 86 1014.2
20260505004539 54 50 0.0 0.0 0.00 0.00 0.00 86 1014.2
20260505004039 54 50 0.0 0.0 0.00 0.00 0.00 86 1014.2
20260505003537 54 355 0.0 0.9 0.00 0.00 0.00 86 1014.2
20260505003042 54 355 0.0 0.9 0.00 0.00 0.00 86 1014.2
20260505002541 54 355 0.0 0.0 0.00 0.00 0.00 86 1014.2
20260505002042 54 355 0.0 0.0 0.00 0.00 0.00 86 1014.2
20260505001613 54 36 0.0 0.0 0.00 0.00 0.00 86 1014.6
20260505001141 54 37 0.0 0.0 0.00 0.00 0.00 85 1014.2
20260505000715 54 37 0.0 0.9 0.00 0.00 0.00 85 1014.6
20260505000239 54 37 0.0 0.0 0.00 0.00 0.00 85 1014.6
20260504235814 54 38 0.0 0.0 0.00 0.00 0.00 85 1014.6
20260504235040 55 37 0.0 0.0 0.00 0.00 0.00 84 1014.6
20260504234543 55 37 0.0 0.0 0.00 0.00 0.00 84 1014.6
20260504234113 55 31 0.0 0.0 0.00 0.00 0.00 84 1014.2
20260504233643 55 67 0.0 0.0 0.00 0.00 0.00 84 1014.6
20260504233215 55 23 0.0 0.0 0.00 0.00 0.00 84 1014.6
20260504232743 55 46 0.0 0.0 0.00 0.00 0.00 84 1014.6
20260504232314 55 167 0.0 0.0 0.00 0.00 0.00 84 1014.6
20260504231539 55 212 0.0 0.0 0.00 0.00 0.00 84 1014.6
20260504231044 55 52 0.0 0.0 0.00 0.00 0.00 84 1014.6
20260504230612 55 55 0.0 0.0 0.00 0.00 0.00 84 1014.6
20260504230212 55 84 0.0 0.0 0.00 0.00 0.00 84 1014.6
20260504225739 56 65 0.0 0.0 0.00 0.00 0.00 84 1014.6
20260504225313 56 44 0.0 0.0 0.00 0.00 0.00 84 1014.6
20260504224540 56 5 0.0 0.0 0.00 0.00 0.00 84 1014.6
20260504224044 56 332 0.0 0.0 0.00 0.00 0.00 84 1014.6
20260504223541 56 65 0.0 0.0 0.00 0.00 0.00 84 1014.6
20260504223111 56 66 0.0 0.0 0.00 0.00 0.00 84 1014.6
20260504222640 56 205 0.0 0.9 0.00 0.00 0.00 84 1014.6
20260504222214 56 292 0.0 0.0 0.00 0.00 0.00 84 1014.9
20260504221811 56 301 0.0 0.0 0.00 0.00 0.00 84 1014.9
20260504221037 56 17 0.0 0.0 0.00 0.00 0.00 85 1014.9
20260504220541 56 17 0.0 0.0 0.00 0.00 0.00 85 1014.9
20260504220114 56 346 0.0 0.0 0.00 0.00 0.00 85 1014.9
20260504215712 56 346 0.0 0.0 0.00 0.00 0.00 85 1014.9
20260504215241 56 34 0.0 0.0 0.00 0.00 0.00 85 1014.9
20260504214810 56 28 0.0 0.0 0.00 0.00 0.00 85 1014.9